Time,TemperatureF,DewpointF,PressureIn,WindDirection,WindDirectionDegrees,WindSpeedMPH,WindSpeedGustMPH,Humidity,HourlyPrecipIn,Conditions,Clouds,dailyrainin,SoftwareType,DateUTC
2013-03-15 00:03:00,59.0,50.0,30.17,NNW,343,4.0,7.0,73,0.00,,,0.00,,2013-03-15 04:03:00,
2013-03-15 00:12:00,59.0,50.0,30.17,NNW,343,4.0,7.0,73,0.00,,,0.00,,2013-03-15 04:12:00,
2013-03-15 00:23:00,59.0,51.0,30.17,North,355,2.0,7.0,74,0.00,,,0.00,,2013-03-15 04:23:00,
2013-03-15 00:32:00,59.0,51.0,30.18,NNW,337,1.0,6.0,74,0.00,,,0.00,,2013-03-15 04:32:00,
2013-03-15 00:43:00,59.0,51.0,30.18,NNW,337,1.0,6.0,74,0.00,,,0.00,,2013-03-15 04:43:00,
2013-03-15 00:53:00,59.0,51.0,30.17,North,355,4.0,9.0,74,0.00,,,0.00,,2013-03-15 04:53:00,
2013-03-15 01:02:00,59.0,51.0,30.17,North,349,5.0,10.0,74,0.00,,,0.00,,2013-03-15 05:02:00,
2013-03-15 01:12:00,59.0,51.0,30.17,North,349,5.0,10.0,74,0.00,,,0.00,,2013-03-15 05:12:00,
2013-03-15 01:22:00,59.0,51.0,30.17,NNW,338,3.0,8.0,74,0.00,,,0.00,,2013-03-15 05:22:00,
2013-03-15 01:32:00,59.0,51.0,30.17,North,355,2.0,10.0,74,0.00,,,0.00,,2013-03-15 05:32:00,
2013-03-15 01:42:00,59.0,51.0,30.17,North,355,2.0,10.0,74,0.00,,,0.00,,2013-03-15 05:42:00,
2013-03-15 01:52:00,58.0,50.0,30.17,NNW,342,3.0,7.0,75,0.00,,,0.00,,2013-03-15 05:52:00,
2013-03-15 02:02:00,58.0,50.0,30.17,NW,321,3.0,7.0,75,0.00,,,0.00,,2013-03-15 06:02:00,
2013-03-15 02:12:00,58.0,50.0,30.17,NW,321,3.0,7.0,75,0.00,,,0.00,,2013-03-15 06:12:00,
2013-03-15 02:22:00,58.0,50.0,30.16,NNW,346,3.0,9.0,75,0.00,,,0.00,,2013-03-15 06:22:00,
2013-03-15 02:32:00,58.0,50.0,30.16,NW,320,4.0,10.0,76,0.00,,,0.00,,2013-03-15 06:32:00,
2013-03-15 02:42:00,58.0,50.0,30.16,NW,320,4.0,10.0,76,0.00,,,0.00,,2013-03-15 06:42:00,
2013-03-15 02:53:00,58.0,50.0,30.15,North,351,4.0,8.0,76,0.00,,,0.00,,2013-03-15 06:53:00,
2013-03-15 03:02:00,57.0,50.0,30.15,NNW,348,4.0,6.0,76,0.00,,,0.00,,2013-03-15 07:02:00,
2013-03-15 03:12:00,57.0,50.0,30.15,NNW,348,4.0,6.0,76,0.00,,,0.00,,2013-03-15 07:12:00,
2013-03-15 03:22:00,57.0,50.0,30.15,NW,317,1.0,7.0,76,0.00,,,0.00,,2013-03-15 07:22:00,
2013-03-15 03:32:00,57.0,50.0,30.14,North,355,3.0,7.0,76,0.00,,,0.00,,2013-03-15 07:32:00,
2013-03-15 03:42:00,57.0,50.0,30.14,North,355,3.0,7.0,76,0.00,,,0.00,,2013-03-15 07:42:00,
2013-03-15 03:52:00,57.0,50.0,30.14,North,351,3.0,6.0,77,0.00,,,0.00,,2013-03-15 07:52:00,
2013-03-15 04:02:00,57.0,50.0,30.14,NNW,340,3.0,8.0,76,0.00,,,0.00,,2013-03-15 08:02:00,
2013-03-15 04:12:00,57.0,50.0,30.14,NNW,340,3.0,8.0,76,0.00,,,0.00,,2013-03-15 08:12:00,
2013-03-15 04:23:00,57.0,49.0,30.14,NNW,345,3.0,9.0,75,0.00,,,0.00,,2013-03-15 08:23:00,
2013-03-15 04:33:00,57.0,49.0,30.14,NNW,348,3.0,11.0,74,0.00,,,0.00,,2013-03-15 08:33:00,
2013-03-15 04:42:00,57.0,49.0,30.14,NNW,348,3.0,11.0,74,0.00,,,0.00,,2013-03-15 08:42:00,
2013-03-15 04:52:00,57.0,47.0,30.14,NNW,327,3.0,8.0,69,0.00,,,0.00,,2013-03-15 08:52:00,
2013-03-15 05:02:00,57.0,45.0,30.15,NNW,342,3.0,9.0,63,0.00,,,0.00,,2013-03-15 09:02:00,
2013-03-15 05:12:00,57.0,45.0,30.15,NNW,342,3.0,9.0,63,0.00,,,0.00,,2013-03-15 09:12:00,
2013-03-15 05:22:00,58.0,44.0,30.14,NNW,345,3.0,8.0,60,0.00,,,0.00,,2013-03-15 09:22:00,
2013-03-15 05:33:00,57.0,43.0,30.14,North,350,2.0,9.0,60,0.00,,,0.00,,2013-03-15 09:33:00,
2013-03-15 05:43:00,57.0,43.0,30.14,North,350,2.0,9.0,60,0.00,,,0.00,,2013-03-15 09:43:00,
2013-03-15 05:53:00,57.0,43.0,30.15,NNW,345,3.0,7.0,60,0.00,,,0.00,,2013-03-15 09:53:00,
2013-03-15 06:03:00,57.0,44.0,30.16,NNW,331,2.0,7.0,61,0.00,,,0.00,,2013-03-15 10:03:00,
2013-03-15 06:12:00,57.0,44.0,30.16,NNW,331,2.0,7.0,61,0.00,,,0.00,,2013-03-15 10:12:00,
2013-03-15 06:23:00,56.0,44.0,30.16,NNW,340,2.0,8.0,64,0.00,,,0.00,,2013-03-15 10:23:00,
2013-03-15 06:33:00,56.0,44.0,30.17,North,360,3.0,8.0,65,0.00,,,0.00,,2013-03-15 10:33:00,
2013-03-15 06:42:00,56.0,44.0,30.17,North,360,3.0,8.0,65,0.00,,,0.00,,2013-03-15 10:42:00,
2013-03-15 06:52:00,56.0,45.0,30.17,NNW,348,3.0,9.0,66,0.00,,,0.00,,2013-03-15 10:52:00,
2013-03-15 07:03:00,56.0,45.0,30.18,NNW,348,4.0,10.0,66,0.00,,,0.00,,2013-03-15 11:03:00,
2013-03-15 07:12:00,56.0,45.0,30.18,NNW,348,4.0,10.0,66,0.00,,,0.00,,2013-03-15 11:12:00,
2013-03-15 07:23:00,56.0,45.0,30.19,North,360,2.0,8.0,67,0.00,,,0.00,,2013-03-15 11:23:00,
2013-03-15 07:32:00,56.0,46.0,30.19,NNW,346,3.0,9.0,68,0.00,,,0.00,,2013-03-15 11:32:00,
2013-03-15 07:42:00,56.0,46.0,30.19,NNW,346,3.0,9.0,68,0.00,,,0.00,,2013-03-15 11:42:00,
2013-03-15 07:52:00,55.0,44.0,30.19,NNW,348,4.0,12.0,67,0.00,,,0.00,,2013-03-15 11:52:00,
2013-03-15 08:02:00,55.0,45.0,30.20,North,349,3.0,8.0,69,0.00,,,0.00,,2013-03-15 12:02:00,
2013-03-15 08:12:00,55.0,45.0,30.20,NNW,347,2.0,7.0,69,0.00,,,0.00,,2013-03-15 12:12:00,
2013-03-15 08:23:00,55.0,45.0,30.20,NNW,347,2.0,7.0,69,0.00,,,0.00,,2013-03-15 12:23:00,
2013-03-15 08:32:00,55.0,45.0,30.21,North,355,3.0,7.0,68,0.00,,,0.00,,2013-03-15 12:32:00,
2013-03-15 08:42:00,55.0,45.0,30.21,North,355,3.0,7.0,68,0.00,,,0.00,,2013-03-15 12:42:00,
2013-03-15 08:52:00,56.0,46.0,30.22,NNW,347,3.0,8.0,68,0.00,,,0.00,,2013-03-15 12:52:00,
2013-03-15 09:02:00,56.0,45.0,30.22,North,355,3.0,8.0,67,0.00,,,0.00,,2013-03-15 13:02:00,
2013-03-15 09:12:00,56.0,45.0,30.22,North,355,3.0,8.0,67,0.00,,,0.00,,2013-03-15 13:12:00,
2013-03-15 09:22:00,57.0,45.0,30.22,NNW,347,4.0,7.0,64,0.00,,,0.00,,2013-03-15 13:22:00,
2013-03-15 09:32:00,59.0,46.0,30.23,NNW,337,3.0,8.0,62,0.00,,,0.00,,2013-03-15 13:32:00,
2013-03-15 09:42:00,59.0,46.0,30.23,NNW,337,3.0,8.0,62,0.00,,,0.00,,2013-03-15 13:42:00,
2013-03-15 09:53:00,60.0,47.0,30.22,NNW,341,3.0,7.0,61,0.00,,,0.00,,2013-03-15 13:53:00,
2013-03-15 10:02:00,60.0,47.0,30.23,North,350,4.0,9.0,61,0.00,,,0.00,,2013-03-15 14:02:00,
2013-03-15 10:12:00,60.0,47.0,30.23,North,350,4.0,9.0,61,0.00,,,0.00,,2013-03-15 14:12:00,
2013-03-15 10:22:00,61.0,47.0,30.23,NNW,343,4.0,9.0,59,0.00,,,0.00,,2013-03-15 14:22:00,
2013-03-15 10:32:00,61.0,47.0,30.23,NNW,343,4.0,9.0,59,0.00,,,0.00,,2013-03-15 14:32:00,
2013-03-15 10:42:00,61.0,47.0,30.23,NNW,343,4.0,9.0,59,0.00,,,0.00,,2013-03-15 14:42:00,
2013-03-15 10:53:00,62.0,47.0,30.23,NNW,346,3.0,9.0,58,0.00,,,0.00,,2013-03-15 14:53:00,
2013-03-15 11:02:00,63.0,48.0,30.23,WNW,302,3.0,9.0,57,0.00,,,0.00,,2013-03-15 15:02:00,
2013-03-15 11:13:00,63.0,48.0,30.23,WNW,302,3.0,9.0,57,0.00,,,0.00,,2013-03-15 15:13:00,
2013-03-15 11:23:00,64.0,48.0,30.22,North,355,3.0,9.0,56,0.00,,,0.00,,2013-03-15 15:23:00,
2013-03-15 11:33:00,64.0,48.0,30.22,NNW,338,3.0,8.0,57,0.00,,,0.00,,2013-03-15 15:33:00,
2013-03-15 11:42:00,65.0,49.0,30.22,NNW,341,4.0,7.0,56,0.00,,,0.00,,2013-03-15 15:42:00,
2013-03-15 11:53:00,65.0,49.0,30.22,NNW,341,4.0,7.0,56,0.00,,,0.00,,2013-03-15 15:53:00,
2013-03-15 12:03:00,66.0,51.0,30.22,ENE,69,1.0,7.0,59,0.00,,,0.00,,2013-03-15 16:03:00,
2013-03-15 12:12:00,66.0,51.0,30.22,NNW,332,4.0,10.0,58,0.00,,,0.00,,2013-03-15 16:12:00,
2013-03-15 12:23:00,66.0,51.0,30.22,NNW,332,4.0,10.0,58,0.00,,,0.00,,2013-03-15 16:23:00,
2013-03-15 12:32:00,66.0,52.0,30.22,NNW,346,3.0,9.0,60,0.00,,,0.00,,2013-03-15 16:32:00,
2013-03-15 12:42:00,66.0,52.0,30.22,NNW,346,3.0,9.0,60,0.00,,,0.00,,2013-03-15 16:42:00,
2013-03-15 12:52:00,67.0,52.0,30.22,NNW,344,3.0,8.0,59,0.00,,,0.00,,2013-03-15 16:52:00,
2013-03-15 13:02:00,68.0,54.0,30.22,NNW,335,3.0,9.0,60,0.00,,,0.00,,2013-03-15 17:02:00,
2013-03-15 13:12:00,68.0,54.0,30.22,NNW,335,3.0,9.0,60,0.00,,,0.00,,2013-03-15 17:12:00,
2013-03-15 13:22:00,68.0,54.0,30.21,NNW,340,2.0,7.0,62,0.00,,,0.00,,2013-03-15 17:22:00,
2013-03-15 13:32:00,68.0,53.0,30.21,NE,34,3.0,8.0,59,0.00,,,0.00,,2013-03-15 17:32:00,
2013-03-15 13:42:00,68.0,53.0,30.21,NE,34,3.0,8.0,59,0.00,,,0.00,,2013-03-15 17:42:00,
2013-03-15 13:53:00,68.0,53.0,30.21,NE,34,3.0,8.0,59,0.00,,,0.00,,2013-03-15 17:53:00,
2013-03-15 14:02:00,68.0,54.0,30.19,NNW,339,2.0,10.0,62,0.00,,,0.00,,2013-03-15 18:02:00,
2013-03-15 14:12:00,68.0,54.0,30.19,NNW,339,2.0,10.0,62,0.00,,,0.00,,2013-03-15 18:12:00,
2013-03-15 14:22:00,68.0,54.0,30.18,NNW,330,3.0,7.0,61,0.00,,,0.00,,2013-03-15 18:22:00,
2013-03-15 14:32:00,68.0,55.0,30.18,East,93,2.0,7.0,63,0.00,,,0.00,,2013-03-15 18:32:00,
2013-03-15 14:42:00,68.0,55.0,30.18,East,93,2.0,7.0,63,0.00,,,0.00,,2013-03-15 18:42:00,
2013-03-15 14:52:00,69.0,55.0,30.17,NE,44,1.0,6.0,61,0.00,,,0.00,,2013-03-15 18:52:00,
2013-03-15 15:02:00,69.0,52.0,30.16,North,355,3.0,8.0,55,0.00,,,0.00,,2013-03-15 19:02:00,
2013-03-15 15:12:00,69.0,52.0,30.16,North,355,3.0,8.0,55,0.00,,,0.00,,2013-03-15 19:12:00,
2013-03-15 15:22:00,70.0,52.0,30.16,North,355,3.0,5.0,53,0.00,,,0.00,,2013-03-15 19:22:00,
2013-03-15 15:32:00,69.0,52.0,30.16,NE,41,3.0,7.0,55,0.00,,,0.00,,2013-03-15 19:32:00,
2013-03-15 15:42:00,69.0,52.0,30.16,NE,41,3.0,7.0,55,0.00,,,0.00,,2013-03-15 19:42:00,
2013-03-15 15:52:00,70.0,53.0,30.15,NE,51,0.0,6.0,54,0.00,,,0.00,,2013-03-15 19:52:00,
2013-03-15 16:02:00,69.0,53.0,30.15,North,355,2.0,9.0,56,0.00,,,0.00,,2013-03-15 20:02:00,
2013-03-15 16:12:00,69.0,53.0,30.15,North,355,2.0,9.0,56,0.00,,,0.00,,2013-03-15 20:12:00,
2013-03-15 16:22:00,69.0,52.0,30.14,North,350,3.0,5.0,55,0.00,,,0.00,,2013-03-15 20:22:00,
2013-03-15 16:32:00,69.0,52.0,30.14,SW,217,1.0,6.0,55,0.00,,,0.00,,2013-03-15 20:32:00,
2013-03-15 16:42:00,69.0,52.0,30.14,SW,217,1.0,6.0,55,0.00,,,0.00,,2013-03-15 20:42:00,
2013-03-15 16:52:00,69.0,53.0,30.14,North,351,3.0,7.0,56,0.00,,,0.00,,2013-03-15 20:52:00,
2013-03-15 17:02:00,69.0,53.0,30.14,North,11,1.0,7.0,56,0.00,,,0.00,,2013-03-15 21:02:00,
2013-03-15 17:12:00,69.0,53.0,30.14,North,11,1.0,7.0,56,0.00,,,0.00,,2013-03-15 21:12:00,
2013-03-15 17:22:00,69.0,52.0,30.14,North,355,3.0,6.0,54,0.00,,,0.00,,2013-03-15 21:22:00,
2013-03-15 17:33:00,69.0,51.0,30.14,NE,38,2.0,7.0,53,0.00,,,0.00,,2013-03-15 21:33:00,
2013-03-15 17:43:00,69.0,51.0,30.14,NE,38,2.0,7.0,53,0.00,,,0.00,,2013-03-15 21:43:00,
2013-03-15 17:53:00,69.0,53.0,30.13,SE,125,0.0,6.0,56,0.00,,,0.00,,2013-03-15 21:53:00,
2013-03-15 18:03:00,69.0,53.0,30.14,SSE,159,1.0,3.0,57,0.00,,,0.00,,2013-03-15 22:03:00,
2013-03-15 18:14:00,69.0,53.0,30.14,SSE,159,1.0,3.0,57,0.00,,,0.00,,2013-03-15 22:14:00,
2013-03-15 18:22:00,69.0,53.0,30.14,North,355,1.0,5.0,57,0.00,,,0.00,,2013-03-15 22:22:00,
2013-03-15 18:32:00,69.0,53.0,30.14,SSW,202,0.0,4.0,56,0.00,,,0.00,,2013-03-15 22:32:00,
2013-03-15 18:42:00,69.0,53.0,30.14,SSW,202,0.0,4.0,56,0.00,,,0.00,,2013-03-15 22:42:00,
2013-03-15 18:53:00,68.0,53.0,30.14,NNW,338,1.0,5.0,58,0.00,,,0.00,,2013-03-15 22:53:00,
2013-03-15 19:02:00,68.0,53.0,30.14,East,91,0.0,3.0,58,0.00,,,0.00,,2013-03-15 23:02:00,
2013-03-15 19:12:00,68.0,53.0,30.14,East,91,0.0,3.0,58,0.00,,,0.00,,2013-03-15 23:12:00,
2013-03-15 19:22:00,67.0,53.0,30.14,NNE,25,1.0,4.0,60,0.00,,,0.00,,2013-03-15 23:22:00,
2013-03-15 19:32:00,67.0,53.0,30.14,NNE,30,0.0,2.0,60,0.00,,,0.00,,2013-03-15 23:32:00,
2013-03-15 19:42:00,67.0,53.0,30.14,NNE,30,0.0,2.0,60,0.00,,,0.00,,2013-03-15 23:42:00,
2013-03-15 19:53:00,67.0,53.0,30.14,NNE,25,0.0,3.0,60,0.00,,,0.00,,2013-03-15 23:53:00,
2013-03-15 20:03:00,66.0,52.0,30.14,NNE,25,0.0,0.0,60,0.00,,,0.00,,2013-03-16 00:03:00,
2013-03-15 20:12:00,66.0,52.0,30.14,NNE,25,0.0,0.0,60,0.00,,,0.00,,2013-03-16 00:12:00,
2013-03-15 20:22:00,66.0,53.0,30.14,NNE,25,0.0,1.0,62,0.00,,,0.00,,2013-03-16 00:22:00,
2013-03-15 20:32:00,66.0,53.0,30.14,NE,36,0.0,1.0,62,0.00,,,0.00,,2013-03-16 00:32:00,
2013-03-15 20:42:00,66.0,53.0,30.14,NE,36,0.0,1.0,62,0.00,,,0.00,,2013-03-16 00:42:00,
2013-03-15 20:52:00,66.0,53.0,30.15,ESE,117,0.0,1.0,62,0.00,,,0.00,,2013-03-16 00:52:00,
2013-03-15 21:02:00,66.0,53.0,30.14,ESE,117,0.0,1.0,62,0.00,,,0.00,,2013-03-16 01:02:00,
2013-03-15 21:12:00,66.0,53.0,30.14,ESE,117,0.0,1.0,62,0.00,,,0.00,,2013-03-16 01:12:00,
2013-03-15 21:22:00,65.0,52.0,30.15,ESE,117,0.0,0.0,62,0.00,,,0.00,,2013-03-16 01:22:00,
2013-03-15 21:32:00,65.0,53.0,30.16,ESE,113,0.0,1.0,65,0.00,,,0.00,,2013-03-16 01:32:00,
2013-03-15 21:42:00,65.0,53.0,30.16,ESE,113,0.0,1.0,65,0.00,,,0.00,,2013-03-16 01:42:00,
2013-03-15 21:53:00,65.0,53.0,30.16,ESE,111,0.0,6.0,64,0.00,,,0.00,,2013-03-16 01:53:00,
2013-03-15 22:02:00,65.0,53.0,30.16,ESE,111,0.0,2.0,64,0.00,,,0.00,,2013-03-16 02:02:00,
2013-03-15 22:12:00,65.0,53.0,30.16,ESE,111,0.0,2.0,64,0.00,,,0.00,,2013-03-16 02:12:00,
2013-03-15 22:23:00,65.0,52.0,30.16,ESE,111,0.0,3.0,62,0.00,,,0.00,,2013-03-16 02:23:00,
2013-03-15 22:32:00,65.0,51.0,30.16,ESE,111,0.0,0.0,61,0.00,,,0.00,,2013-03-16 02:32:00,
2013-03-15 22:42:00,65.0,51.0,30.16,ESE,111,0.0,0.0,61,0.00,,,0.00,,2013-03-16 02:42:00,
2013-03-15 22:52:00,65.0,52.0,30.16,ESE,111,0.0,0.0,63,0.00,,,0.00,,2013-03-16 02:52:00,
2013-03-15 23:02:00,64.0,52.0,30.16,ESE,111,0.0,0.0,64,0.00,,,0.00,,2013-03-16 03:02:00,
2013-03-15 23:12:00,64.0,52.0,30.16,ESE,111,0.0,0.0,64,0.00,,,0.00,,2013-03-16 03:12:00,
2013-03-15 23:22:00,64.0,52.0,30.16,ESE,111,0.0,0.0,65,0.00,,,0.00,,2013-03-16 03:22:00,
2013-03-15 23:32:00,64.0,53.0,30.16,ESE,111,0.0,0.0,67,0.00,,,0.00,,2013-03-16 03:32:00,
2013-03-15 23:43:00,64.0,53.0,30.16,ESE,111,0.0,0.0,67,0.00,,,0.00,,2013-03-16 03:43:00,
2013-03-15 23:53:00,64.0,52.0,30.16,ESE,111,0.0,0.0,64,0.00,,,0.00,,2013-03-16 03:53:00,